Regional Weather Roundup
Issued by NWS Green Bay, WI

Home | Current Version | Previous Version | Text Only | Print | Product List | Glossary On
Versions: 1 2 3 4 5 6 7 8 9 10 11 12 13 14 15 16 17 18 19 20 21 22 23 24 25 26 27 28 29 30 31 32 33 34 35 36 37 38 39 40 41 42 43 44 45 46 47 48 49 50
000
ASUS43 KGRB 042359
RWRGRB

NORTH-CENTRAL AND NORTHEAST WISCONSIN REGIONAL WEATHER ROUNDUP
NATIONAL WEATHER SERVICE GREEN BAY WI
700 PM CDT MON MAY 04 2015

WIZ005-009-010>012-018-019-050100-
NORTH CENTRAL WISCONSIN

CITY           SKY/WX    TMP DP  RH WIND       PRES   REMARKS
IRONWOOD       PTSUNNY   61  18  18 SE3       30.18S
MANITOWISH WTR NOT AVBL
ARBOR VITAE    NOT AVBL
EAGLE RIVER    NOT AVBL
LAND O LAKES   NOT AVBL
RHINELANDER    MOSUNNY   64  23  21 NE3       30.19S
PHILLIPS       MOSUNNY   63  25  23 N7        30.18R
ANTIGO         NOT AVBL
TOMAHAWK       NOT AVBL
MERRILL        NOT AVBL
$$

WIZ013-073-050100-
NORTHEAST WISCONSIN

CITY           SKY/WX    TMP DP  RH WIND       PRES   REMARKS
IRON MOUNTAIN  CLEAR     65  26  23 N7        30.17R
MARINETTE      PTCLDY    57  37  47 SE9       30.19R
$$

WIZ017-030-035>037-045-050100-
CENTRAL WISCONSIN

CITY           SKY/WX    TMP DP  RH WIND       PRES   REMARKS
MEDFORD        NOT AVBL
WAUSAU         CLOUDY    67  28  23 NE5       30.15S
MOSINEE        SUNNY     64  28  25 N5        30.18S
MARSHFIELD     CLOUDY    65  41  41 W3        30.16F
WISC RAPIDS    PTSUNNY   68  34  28 N6        30.16S
STEVENS POINT  NOT AVBL
WAUPACA        NOT AVBL
SHAWANO        NOT AVBL
CLINTONVILLE   MOCLDY    64  37  36 E12G17    30.16R
$$

WIZ038-039-048-051-050100-
FOX VALLEY

CITY           SKY/WX    TMP DP  RH WIND       PRES   REMARKS
NWS GREEN BAY  MOCLDY    61  40  45 E14       30.19R
APPLETON       MOCLDY    63  39  42 SE12      30.16R
OSHKOSH        PTCLDY    63  41  44 SE12      30.15R
FOND DU LAC    PTCLDY    64  39  39 E12       30.15S
$$

WIZ022-050-052-050100-
EAST CENTRAL WISCONSIN

CITY           SKY/WX    TMP DP  RH WIND       PRES   REMARKS
STURGEON BAY   MOCLDY    54  36  50 E7        30.23R
MANITOWOC      NOT AVBL
SHEBOYGAN      PTCLDY    54  39  57 NE10      30.18S
$$

LMZ563-521-522-541>543-050100-
LAKESHORE

STATION/POSITION TIME  TEMP    WIND        PRES    VSBY  WAVE
                       AIR SEA DIR/SP/G                  HT/PER
                 (UTC) (F)     (DEG/KT/KT) (MB)    (MI)  (FT/S)
SHEBOYGAN LKSHOR 2300   50      40/ 11/ 15 1022.3R
KEWAUNEE LKSHORE 2300   48      CALM  /  3 1021.8R
NORTHPORT PIER   2300   51     140/  5/ 18 1022.4S
CHAMBERS ISLAND  2300   59      70/  9/ 12 1022.0R
MENOMINEE LKSHOR 2300   55      90/  8/  9 1022.8R
$$



USA.gov is the U.S. government's official web portal to all federal, state and local government web resources and services.